アトラス彗星

C/2018 A3 ( ATLAS )

English version
Home page
Updated on December 27, 2018

---------------------------------------------------------------------

・ プロフィール

発見日 2018年1月10日
発見光度 18.7等
発見者 Asteroid Terrestrial-impact Last Alert System (ATLAS) search program

・ 写真集

・ 軌道要素

Epoch 2018 Dec. 28.0 TT = JDT 2458480.5
T 2019 Jan. 12.85799 TT                                 MPCW
q   3.2767693            (2000.0)            P               Q
z  +0.0020034      Peri.   86.42487     -0.24779483     +0.95551158
 +/-0.0000011      Node   194.27954     +0.40379295     +0.25196948
e   0.9934352      Incl.  139.56194     +0.88065258     +0.15332645
From 678 observations 2018 Jan. 10-Oct. 13, mean residual 0".4.

・ 星図

・ 光度変化

        m1 = 8.0 + 5 logΔ + 10.0 log r

---------------------------------------------------------------------

軌道要素はM.P.E.C. 2018-U70に掲載されたものです。
星図はステラナビゲータ Ver.10 (アストロアーツ) で作成したものです。
光度グラフはComet for Windowsで作成したものです。

---------------------------------------------------------------------

Copyright(C) Seiichi Yoshida (comet@aerith.net). All rights reserved.